Regional Weather Roundup
Issued by NWS Green Bay, WI

Home | Current Version | Previous Version | Text Only | Print | Product List | Glossary On
Versions: 1 2 3 4 5 6 7 8 9 10 11 12 13 14 15 16 17 18 19 20 21 22 23 24 25 26 27 28 29 30 31 32 33 34 35 36 37 38 39 40 41 42 43 44 45 46 47 48 49 50
000
ASUS43 KGRB 252211
RWRGRB

NORTH-CENTRAL AND NORTHEAST WISCONSIN REGIONAL WEATHER ROUNDUP
NATIONAL WEATHER SERVICE GREEN BAY WI
500 PM CDT THU AUG 25 2016

WIZ005-009-010>012-018-019-252300-
NORTH CENTRAL WISCONSIN

CITY           SKY/WX    TMP DP  RH WIND       PRES   REMARKS
IRONWOOD       CLOUDY    69  56  62 W16       29.97R
MANITOWISH WTR MOSUNNY   72  53  51 W15G26    29.98R
ARBOR VITAE    SUNNY     73  53  48 W17G25    29.99R
EAGLE RIVER    MOSUNNY   74  50  43 W13G26    29.97R
LAND O LAKES   MOSUNNY   73  51  45 W12       29.97R
RHINELANDER    MOSUNNY   75  53  46 W22G30    29.99R
PHILLIPS       MOSUNNY   71  56  57 W9        29.99S
ANTIGO         MOSUNNY   74  58  58 W14G23    30.00S
TOMAHAWK       MOSUNNY   73  54  51 W12G22    30.00R
MERRILL        MOSUNNY   76  59  54 W10G16    30.00S
$$

WIZ013-073-252300-
NORTHEAST WISCONSIN

CITY           SKY/WX    TMP DP  RH WIND       PRES   REMARKS
IRON MOUNTAIN  MOSUNNY   79  55  43 SW12      29.93F
MARINETTE      SUNNY    N/A N/A N/A W7        29.94F
OCONTO         MOSUNNY   79  59  50 W12G17    29.95S
$$

WIZ017-030-035>037-045-252300-
CENTRAL WISCONSIN

CITY           SKY/WX    TMP DP  RH WIND       PRES   REMARKS
MEDFORD        MOSUNNY   73  56  55 W13G18    30.01S
WAUSAU         PTSUNNY   76  58  53 W15G22    29.99S
MOSINEE        MOSUNNY   75  59  57 W16       30.02S
MARSHFIELD     MOSUNNY   76  58  53 W14G21    30.02R
WISC RAPIDS    PTSUNNY   78  60  53 W16G23    30.03S
STEVENS POINT  PTSUNNY   75  58  54 W10G18    30.01S
WAUPACA        SUNNY     81  58  45 SW12G17   30.00S
SHAWANO        MOSUNNY   80  58  46 W8G17     29.98S
CLINTONVILLE   MOSUNNY   79  54  41 W13G18    29.98F
WAUTOMA        SUNNY     79  60  52 W14       30.02S
$$

WIZ038-039-048-051-252300-
FOX VALLEY

CITY           SKY/WX    TMP DP  RH WIND       PRES   REMARKS
NWS GREEN BAY  MOSUNNY   79  62  56 W9        29.98F
APPLETON       MOSUNNY   79  55  44 W13       29.99F
OSHKOSH        SUNNY     78  61  55 W14G21    30.00S
FOND DU LAC    SUNNY     79  59  50 W12       30.02S
$$

WIZ022-050-052-252300-
EAST CENTRAL WISCONSIN

CITY           SKY/WX    TMP DP  RH WIND       PRES   REMARKS
EPHRAIM        FAIR      76  62  60 SW6       29.94F
WASHINGTON ISL NOT AVBL
STURGEON BAY   SUNNY     78  62  57 SW12      29.96F
MANITOWOC      SUNNY     78  57  48 W12       30.00S
SHEBOYGAN      SUNNY     80  57  45 W10G18    30.00S
$$

LMZ563-521-522-541>543-252300-
LAKESHORE

STATION/POSITION TIME  TEMP    WIND        PRES    VSBY  WAVE
                       AIR SEA DIR/SP/G                  HT/PER
                 (UTC) (F)     (DEG/KT/KT) (MB)    (MI)  (FT/S)
SHEBOYGAN LKSHOR 2200   79     270/  8/ 14 1015.0F
KEWAUNEE LKSHORE 2100   78     250/  5/ 10 1014.7F
ALGOMA MARINA    2100          300/  6/ 11   N/A
NORTHPORT PIER   2100   79     220/  5/ 12 1013.5F
N MID LAKE BUOY  2150   71 70  200/ 16/ 19 1013.0F         1/ 5
S GREEN BAY BUOY 2130   77 73  250/ 14/ 16 1014.2F
SISTER BAY LKSHO 2137   78     230/ 15/ 18   N/A
CHAMBERS ISLAND  2100   76     190/  7/ 12 1013.5F
MENOMINEE LKSHOR 2100   79     240/ 10/ 18 1013.3F
$$




USA.gov is the U.S. government's official web portal to all federal, state and local government web resources and services.